Wind_Speed
20 20 20 19 18 18 17 16 15 14 13 11 10 10 11 11 11 10 10 10 9 10 12 14 17 21 21 21 21 21 21 20 19 22 25 26 25 24 23 23 23 22
21 21 20 20 19 18 17 16 15 13 12 9 9 10 10 10 10 11 11 10 9 12 15 16 19 22 20 19 19 20 20 21 21 23 25 25 25 25 25 25 25 24
22 21 21 21 20 18 17 16 14 12 10 8 9 10 10 10 11 11 13 12 12 15 16 16 18 18 17 17 18 19 20 21 22 23 24 25 26 26 27 28 27 27
23 22 22 21 20 17 16 14 12 9 7 8 9 10 11 11 12 12 13 13 14 15 15 15 15 15 16 17 18 20 21 21 23 24 24 25 26 27 28 30 31 30
22 22 21 20 18 16 14 12 9 6 5 7 10 11 12 11 11 12 11 11 11 12 12 13 14 15 16 18 19 21 22 23 24 25 26 26 27 27 28 29 31 32
19 19 18 16 14 13 11 10 7 5 5 8 10 12 12 11 10 10 9 8 9 10 11 13 14 16 18 19 21 23 24 26 27 27 28 27 27 27 28 29 30 32
14 14 13 11 10 9 8 7 5 5 7 9 10 12 12 10 8 8 7 8 9 10 11 14 16 18 20 21 23 25 26 28 29 30 30 29 28 28 28 29 31 33
10 9 9 8 7 6 6 5 5 6 9 10 10 10 10 8 6 6 8 9 10 11 12 14 16 19 21 23 24 26 27 29 30 31 32 31 31 29 28 29 31 34
7 6 6 5 3 4 4 5 6 8 10 9 9 8 8 7 7 8 10 12 13 13 13 15 17 19 21 24 25 27 29 30 32 32 33 33 33 31 30 29 30 34
4 5 5 3 3 3 4 5 8 10 9 8 8 9 9 9 10 11 12 13 14 14 15 16 18 20 23 25 27 29 31 32 34 36 36 37 37 36 34 32 31 33
5 5 5 4 5 5 5 7 9 9 8 8 10 10 10 11 12 12 13 13 14 14 15 16 18 21 24 27 30 33 34 36 38 40 41 41 41 41 39 37 35 34
6 7 7 7 7 7 8 9 9 9 9 10 10 10 11 13 13 14 14 13 13 14 14 16 18 21 24 28 32 35 37 39 40 42 43 44 44 43 41 39 37 36
8 9 10 10 9 9 9 9 9 10 11 11 11 11 13 14 14 13 13 12 12 14 15 17 19 22 25 29 33 37 40 41 42 42 43 44 45 43 40 37 37 37
10 11 11 11 11 10 9 8 9 10 11 12 12 13 14 13 13 12 12 13 14 16 18 21 22 24 27 30 35 38 41 42 43 43 43 44 44 43 39 36 36 36
12 12 12 12 11 10 9 10 10 11 12 13 14 14 14 12 12 13 15 18 20 22 24 26 27 28 30 32 36 39 42 43 43 43 43 43 43 41 38 35 34 34
13 12 12 12 11 11 11 12 12 13 14 14 15 15 15 14 15 17 20 23 25 27 29 30 31 31 32 34 37 40 42 43 43 43 43 43 42 40 36 33 33 34
13 13 13 13 12 11 11 12 13 14 14 14 15 16 17 19 21 23 24 26 27 29 31 32 33 33 33 35 38 40 42 43 42 42 42 42 41 39 36 33 33 35
14 14 14 12 10 9 9 10 11 13 14 15 16 18 19 21 24 25 26 27 28 30 31 33 34 34 34 36 39 40 41 41 41 40 40 39 38 36 34 33 33 34
15 14 13 11 9 8 9 9 11 12 14 15 16 17 19 21 24 26 27 28 29 31 33 34 35 35 35 37 39 40 40 39 38 37 36 35 34 32 31 30 31 31
15 14 12 11 10 10 10 10 11 13 14 15 17 18 20 22 24 26 28 30 32 33 34 35 36 36 36 37 38 39 38 37 36 35 33 32 30 29 28 28 28 29
16 15 13 12 12 12 12 12 14 15 16 17 19 20 21 23 26 28 29 32 35 36 36 37 37 37 37 37 38 37 36 36 35 34 33 31 30 29 28 28 28 29
18 16 14 13 14 14 14 15 16 18 18 20 22 22 23 26 28 29 31 34 36 38 38 38 38 38 37 37 37 36 34 35 35 34 34 33 32 32 31 30 30 31
19 18 16 15 15 15 16 17 19 20 20 22 24 24 26 28 30 31 33 35 35 37 37 35 36 37 37 37 38 36 34 34 35 35 35 35 35 35 34 32 32 33
19 19 17 16 16 17 18 19 20 21 22 24 25 27 29 30 31 32 34 34 33 34 34 33 34 37 37 38 39 38 35 34 35 36 36 36 37 37 36 34 34 34
20 19 17 17 18 19 20 21 22 23 24 26 27 29 31 32 32 33 33 32 31 32 33 33 35 37 38 40 41 40 38 36 36 36 37 37 37 37 36 36 35 35
22 20 18 19 20 22 23 24 24 25 26 28 29 32 33 32 33 34 34 32 31 32 33 35 37 38 40 42 43 42 40 38 37 37 37 37 37 37 37 37 37 37
Wind_Direction
256 257 260 263 267 272 277 283 287 290 298 302 301 303 304 302 301 304 311 319 328 335 335 336 342 343 343 345 350 355 356 354 352 351 350 353 354 351 347 341 336 330
255 257 260 264 268 273 279 283 286 293 298 297 297 299 295 291 294 305 317 322 323 327 330 332 337 341 343 345 349 352 352 348 345 344 345 347 348 347 345 342 338 334
254 256 260 264 268 274 280 283 288 293 295 293 293 289 280 281 292 306 315 317 318 325 329 331 337 345 349 349 349 349 346 344 342 341 341 341 342 342 341 340 338 336
255 256 259 263 269 274 278 283 288 288 286 289 284 273 269 280 294 305 313 318 323 328 332 336 342 350 351 348 347 344 342 340 338 337 335 335 336 336 336 336 335 334
254 255 257 261 266 272 277 281 282 275 270 271 268 267 275 288 302 313 321 326 331 336 342 346 348 349 347 345 344 342 341 339 337 335 334 333 332 331 331 331 330 329
254 252 254 260 266 271 277 278 270 250 243 251 261 272 284 297 312 322 330 340 351 353 351 347 343 340 338 336 335 334 334 333 333 332 332 332 331 329 327 325 324 324
254 252 256 263 270 274 274 269 252 230 235 247 260 276 288 301 314 323 331 343 351 348 340 335 331 328 327 326 326 327 327 326 326 326 326 327 328 327 324 322 321 321
257 259 267 272 274 272 263 254 241 228 237 252 264 276 285 295 305 315 324 331 335 334 329 324 322 321 320 321 322 323 323 322 322 321 320 320 322 323 322 320 318 318
263 270 272 270 261 251 244 237 233 234 243 257 268 271 274 282 298 313 322 326 326 324 321 318 317 316 316 317 318 320 320 320 319 318 318 319 320 319 319 317 315 315
255 258 255 231 186 210 230 228 231 240 250 258 263 267 276 289 303 314 319 319 318 316 315 315 314 314 315 317 318 319 320 320 320 320 321 321 320 319 318 316 315 315
235 228 216 189 177 193 214 225 233 241 249 252 259 273 287 295 303 309 310 310 308 307 308 311 313 317 320 322 324 325 325 325 326 325 325 324 323 321 320 318 316 315
232 209 191 181 185 196 209 223 236 242 245 251 263 278 291 297 301 302 303 304 303 304 307 311 315 320 323 326 328 329 329 328 328 326 325 324 323 322 320 318 315 312
223 199 189 186 192 204 213 222 232 240 244 254 267 280 289 294 297 298 302 307 309 311 314 315 318 321 323 325 327 328 328 327 326 325 324 323 322 322 321 318 315 312
215 199 194 196 199 207 217 222 225 234 245 257 269 280 288 291 294 300 308 314 317 318 319 319 320 321 323 324 326 326 326 325 324 323 322 322 322 322 321 318 315 312
213 201 198 202 205 208 216 221 223 228 242 258 271 278 282 286 294 307 313 316 319 322 322 322 322 321 322 325 325 325 323 322 321 321 320 320 321 321 320 317 313 309
212 204 201 205 210 216 223 230 231 232 240 257 272 280 285 292 303 312 316 318 321 323 322 321 319 319 322 325 325 324 321 319 318 318 318 318 318 318 317 315 311 307
209 206 208 214 221 227 234 236 232 232 241 256 273 286 298 306 312 316 318 320 322 322 319 316 315 317 322 326 325 323 320 317 316 316 315 315 315 314 313 311 307 305
206 212 217 222 227 231 235 234 230 234 248 265 281 294 305 312 315 317 319 320 320 319 316 313 313 317 322 324 324 322 318 316 314 313 314 313 313 311 309 307 304 303
206 215 218 217 220 225 234 242 247 254 266 278 290 300 308 312 313 314 316 317 317 317 316 313 312 315 318 320 322 321 318 315 314 314 315 314 312 310 307 304 302 302
208 212 213 216 223 232 242 252 260 269 279 287 295 302 307 309 310 310 312 314 313 314 314 312 310 311 313 316 319 319 317 315 315 316 316 315 313 310 307 306 305 303
207 210 216 226 235 244 252 260 266 275 283 290 297 302 305 306 307 308 310 311 312 312 310 308 306 305 307 313 317 317 316 315 314 315 315 315 313 311 310 309 307 304
204 211 222 233 244 253 260 266 273 279 285 293 299 302 304 305 305 306 308 311 314 314 310 303 300 300 304 311 315 314 313 313 312 312 314 314 313 313 312 311 308 306
205 211 223 236 247 258 265 271 277 282 289 296 299 300 301 302 302 304 307 310 314 314 309 300 295 296 302 309 312 312 311 310 310 311 313 313 313 313 313 311 309 308
215 217 224 237 249 258 266 272 278 285 292 295 295 296 297 299 301 303 306 308 310 310 308 301 297 298 302 306 309 310 309 308 309 310 312 312 312 312 311 310 308 307
229 227 230 240 249 256 264 271 277 283 288 289 289 291 294 296 299 301 302 305 307 307 306 303 301 302 304 305 307 309 309 307 308 309 310 311 310 310 310 309 308 306
238 236 238 245 251 256 262 267 273 278 282 282 284 288 291 294 297 299 301 303 305 305 305 304 304 304 305 305 306 307 307 306 307 308 309 309 310 310 310 309 307 306
Height
5917 5918 5919 5920 5921 5922 5923 5924 5924 5925 5925 5924 5924 5924 5923 5923 5922 5921 5921 5921 5920 5920 5920 5918 5917 5915 5914 5913 5911 5910 5909 5907 5906 5905 5904 5903 5902 5901 5899 5898 5897 5896
5915 5916 5917 5917 5919 5920 5922 5922 5923 5923 5923 5922 5922 5922 5921 5921 5920 5920 5920 5920 5919 5919 5918 5917 5915 5913 5911 5910 5909 5908 5907 5906 5905 5904 5902 5902 5900 5899 5898 5897 5895 5894
5912 5913 5914 5915 5917 5918 5920 5920 5921 5921 5920 5920 5920 5920 5920 5919 5919 5919 5919 5918 5918 5917 5916 5915 5913 5911 5910 5909 5908 5907 5906 5905 5904 5902 5901 5900 5898 5897 5896 5894 5893 5892
5910 5911 5912 5913 5915 5916 5917 5918 5919 5918 5918 5918 5918 5918 5917 5918 5918 5918 5917 5917 5916 5915 5913 5912 5911 5910 5908 5907 5906 5906 5905 5904 5902 5901 5899 5898 5896 5894 5893 5891 5889 5888
5907 5908 5910 5911 5913 5914 5915 5916 5916 5916 5916 5916 5915 5915 5915 5916 5916 5916 5916 5915 5914 5912 5911 5910 5909 5908 5907 5906 5905 5905 5903 5902 5901 5899 5898 5896 5894 5892 5890 5888 5886 5885
5904 5906 5907 5909 5910 5912 5913 5914 5914 5914 5914 5914 5913 5913 5913 5914 5915 5914 5914 5913 5912 5911 5910 5909 5908 5907 5906 5905 5904 5903 5902 5900 5899 5897 5895 5894 5892 5890 5888 5886 5884 5882
5902 5904 5905 5907 5908 5910 5911 5912 5912 5912 5912 5912 5912 5912 5912 5912 5912 5912 5912 5912 5911 5910 5909 5908 5907 5906 5905 5904 5903 5901 5900 5898 5896 5895 5893 5891 5890 5888 5886 5884 5881 5879
5900 5902 5904 5905 5906 5908 5909 5909 5910 5910 5910 5910 5910 5910 5910 5910 5910 5910 5910 5910 5910 5909 5908 5906 5905 5904 5903 5902 5900 5899 5897 5896 5894 5892 5891 5889 5887 5885 5884 5881 5879 5877
5899 5901 5902 5903 5904 5906 5906 5907 5907 5908 5908 5908 5908 5908 5908 5908 5908 5908 5908 5908 5907 5907 5906 5905 5903 5902 5901 5899 5898 5896 5895 5893 5891 5890 5888 5886 5884 5882 5881 5879 5877 5874
5897 5899 5899 5901 5903 5903 5904 5905 5905 5905 5906 5906 5906 5906 5906 5907 5907 5906 5906 5905 5905 5904 5903 5902 5901 5900 5898 5896 5895 5893 5892 5890 5888 5886 5884 5883 5881 5879 5877 5876 5874 5872
5895 5896 5897 5899 5900 5901 5902 5902 5903 5903 5904 5903 5903 5903 5904 5904 5904 5904 5904 5903 5902 5902 5901 5900 5899 5897 5896 5894 5891 5889 5888 5886 5884 5882 5880 5879 5877 5874 5873 5871 5870 5868
5893 5894 5895 5897 5898 5899 5899 5900 5900 5901 5901 5901 5901 5901 5902 5902 5902 5902 5901 5901 5900 5899 5898 5897 5896 5895 5893 5891 5888 5886 5884 5883 5881 5879 5877 5874 5872 5870 5868 5866 5865 5863
5891 5892 5893 5894 5895 5896 5897 5898 5898 5898 5898 5898 5899 5899 5900 5900 5899 5899 5898 5898 5897 5896 5895 5894 5893 5892 5890 5888 5886 5883 5881 5879 5878 5876 5873 5871 5868 5866 5864 5862 5861 5859
5888 5889 5890 5891 5892 5893 5894 5895 5896 5896 5896 5896 5896 5897 5897 5897 5897 5896 5895 5895 5894 5893 5892 5891 5890 5889 5888 5886 5883 5880 5878 5876 5874 5872 5870 5867 5865 5863 5861 5859 5857 5855
5885 5886 5887 5888 5889 5890 5891 5892 5893 5893 5893 5893 5894 5895 5895 5895 5895 5894 5893 5892 5891 5890 5889 5888 5887 5886 5884 5883 5880 5878 5875 5872 5870 5868 5866 5864 5861 5859 5858 5856 5854 5852
5882 5883 5884 5885 5886 5887 5888 5889 5890 5891 5891 5891 5892 5892 5892 5892 5892 5892 5891 5889 5888 5886 5885 5884 5883 5882 5881 5879 5877 5874 5871 5869 5866 5864 5862 5860 5858 5856 5854 5852 5850 5848
5879 5880 5881 5882 5883 5884 5885 5886 5887 5888 5889 5889 5889 5889 5889 5889 5889 5888 5887 5886 5884 5883 5882 5881 5880 5879 5877 5875 5873 5870 5868 5865 5862 5860 5858 5856 5854 5852 5850 5848 5846 5844
5876 5877 5878 5879 5880 5881 5882 5883 5884 5885 5886 5886 5886 5886 5886 5885 5885 5884 5883 5882 5881 5880 5879 5878 5876 5875 5873 5871 5869 5867 5864 5861 5858 5856 5854 5852 5850 5848 5846 5844 5842 5840
5873 5874 5875 5876 5877 5878 5879 5880 5881 5882 5883 5883 5883 5883 5882 5882 5881 5880 5879 5878 5877 5876 5875 5874 5872 5871 5869 5868 5866 5863 5860 5857 5855 5853 5851 5848 5846 5844 5842 5841 5839 5837
5869 5870 5871 5872 5874 5875 5876 5877 5878 5878 5879 5879 5879 5879 5878 5878 5877 5876 5875 5874 5873 5872 5871 5869 5868 5867 5865 5864 5862 5860 5857 5854 5851 5849 5848 5846 5843 5841 5839 5837 5836 5834
5865 5866 5867 5869 5870 5871 5872 5873 5874 5874 5875 5875 5875 5875 5874 5874 5873 5872 5872 5871 5870 5869 5867 5866 5864 5863 5861 5860 5858 5856 5853 5850 5848 5846 5845 5843 5840 5838 5836 5834 5833 5831
5862 5863 5864 5865 5866 5867 5868 5869 5869 5869 5870 5870 5870 5871 5870 5870 5869 5869 5868 5867 5866 5865 5864 5862 5860 5859 5857 5856 5854 5852 5849 5847 5845 5843 5841 5839 5837 5835 5833 5831 5829 5827
5859 5860 5861 5861 5862 5863 5864 5864 5864 5865 5866 5866 5867 5867 5867 5866 5866 5865 5864 5863 5862 5860 5858 5857 5856 5855 5853 5852 5850 5848 5846 5843 5841 5839 5837 5835 5833 5831 5829 5828 5826 5823
5855 5856 5857 5858 5858 5859 5859 5860 5860 5861 5862 5863 5863 5863 5863 5862 5862 5861 5860 5858 5857 5856 5854 5852 5851 5850 5849 5848 5846 5843 5841 5839 5837 5835 5833 5832 5829 5827 5825 5824 5822 5820
5851 5852 5853 5854 5855 5855 5855 5856 5857 5857 5858 5858 5859 5859 5858 5858 5857 5856 5855 5854 5852 5851 5850 5848 5847 5846 5845 5843 5841 5839 5837 5835 5833 5831 5829 5827 5825 5823 5821 5819 5817 5815
5846 5847 5849 5850 5851 5851 5851 5852 5852 5853 5853 5854 5854 5854 5854 5853 5852 5851 5850 5849 5848 5847 5846 5845 5843 5842 5841 5839 5836 5834 5832 5830 5828 5826 5824 5822 5821 5819 5817 5814 5812 5810